Weather in Novyy Berezovets

Russia / Kostroma Oblast     57°34′48″N   43°11′20″E
temp.,
°C
wind,
m/s
gust,
m/s
humid.,
%
clouds,
%
prec.,
mm/h
press.,
hPa
HPBL,
m
10 may, mon
mon1000:00+6nnw61294100 1.5 1015640
03:00+5nnw41190100 1.8 1018579
06:00+4n51190100 0.1 1021581
09:00+6n41084100 0.1 1023652
12:00+10nne4766100 0.0 1025887
15:00+13ne3557100 0.0 10261231
18:00+12ne25655 0.0 1027925
21:00+6e22932 0.0 102819
11 may, tue
tue1100:00+5ne23962 0.0 102943
03:00+4nne25965 0.0 103089
06:00+6ne37865 0.0 1031216
09:00+13ne465336 0.0 1030667
12:00+17ne34392 0.0 1030950
15:00+19ene34360 0.0 10291031
18:00+17ne24555 0.0 1029146
21:00+11ene23730 0.0 103051
12 may, wed
wed1200:00+10ene23760 0.0 103049
03:00+9ene23840 0.0 103053
06:00+11ne36800 0.0 1031168
09:00+18ene35590 0.0 1029484
12:00+23e46500 0.0 10281364
15:00+24ese4746100 0.0 10272418
18:00+20e38685 0.0 1026304
21:00+16ese34825 0.0 102664
13 may, thu
thu1300:00+14se22865 0.0 102733
03:00+13ese248977 0.0 102780
06:00+15e398091 0.0 1026259
09:00+19se396259 0.0 1026618
12:00+23se584173 0.0 10241543
15:00+24se57395 0.0 10231534
18:00+21sse4105483 0.0 1023846
21:00+15sse398061 0.0 1023197
14 may, fri
fri1400:00+14se248790 0.0 102386
03:00+12sse229482 0.2 102337
06:00+15se2487100 0.1 1022149
09:00+18sse257799 0.2 1021383
12:00+23s4753100 0.0 1020948
15:00+24ssw474961 0.0 1019898
18:00+22sse49645 0.0 1018524
21:00+17sse3108668 0.0 1018201